sat.trackr.live / text

‹ back to catalog

STARLINK-32503

NORAD 62157 · 2024-224U

PAYLOAD ACTIVE UNKNOWN

§ Identity

Operator
Country
US
Launch date
2024-11-30
Launch site
AFETR
Launch vehicle
Mass (kg)
RCS (m²)

Purposes: comms

External: N2YO · Heavens-Above · Gunter

§ Orbital elements

Epoch: 2026-09-21T09:18:50.486976Z

Period
94.26 min
Inclination
43.0037°
Eccentricity
0.0002213
Mean motion
15.27610962 rev/d
Perigee alt
481.4 km
Apogee alt
484.5 km
Semi-major
6,861.1 km
B*
6.4375e-4
RAAN
140.3273°
Arg perigee
263.8262°
Mean anomaly
96.2337°
Rev number
10,189

§ Raw data

STARLINK-325031 62157U 24224U   26264.38808434  .00017511  00000+0  64375-3 0  99952 62157  43.0037 140.3273 0002213 263.8262  96.2337 15.27610962101895

JSON: /api/v1/satellites/62157 · /tle

For live sub-satellite position, see the globe view (requires WebGL).

§ Visibility from observer

Set your observer location to see the next 7 days of passes ≥ 10°. The values pass through the URL so the page stays shareable.

No JS? Fill the form by hand. The geolocation button needs JavaScript.